Temperature
19 20 20 20 20 20 19 19 19 19 19 19 19 19 20 20 20 20 20 20 20 20 19 19 19 19 19 19 19 19 19 19 19 19 19 19 19 19 19 18 18 18 19
19 20 20 20 20 19 19 19 19 19 19 19 19 19 19 19 19 19 19 19 19 19 19 19 19 19 19 19 19 19 19 19 19 19 19 19 19 19 19 18 18 18 19
19 19 20 19 19 19 19 19 19 19 19 19 19 19 19 19 19 19 19 19 19 19 19 19 19 19 19 19 19 19 19 19 19 18 18 18 18 19 19 18 18 18 18
19 19 19 19 19 19 19 19 19 19 19 19 19 19 19 19 19 19 19 19 19 19 19 19 19 19 19 19 19 19 19 19 19 18 18 18 18 19 19 18 18 18 18
19 19 19 19 19 19 19 19 19 19 18 18 18 18 18 18 18 19 19 19 19 19 19 19 19 19 19 19 19 19 19 19 18 18 18 18 18 18 19 18 18 18 18
19 19 19 19 19 19 19 19 19 19 18 18 18 18 18 18 18 18 18 18 19 19 19 19 19 19 19 19 19 19 19 18 18 18 18 18 18 18 19 18 18 18 18
18 18 18 19 19 19 19 19 19 19 19 18 18 18 18 18 18 18 18 18 18 18 19 19 19 19 19 19 19 18 18 18 18 18 18 18 18 19 19 18 18 18 18
18 18 18 18 18 18 18 18 18 18 18 18 18 18 18 18 18 18 18 18 18 18 18 18 18 19 19 19 19 18 18 18 18 18 18 18 18 18 19 19 18 18 18
18 18 18 18 18 18 18 18 18 18 18 18 18 18 18 18 18 18 18 18 18 18 18 18 18 18 18 18 19 19 18 18 18 18 18 18 18 18 19 19 18 18 18
18 18 18 18 18 18 18 18 18 18 18 18 18 18 18 18 18 18 18 18 18 18 18 18 18 18 18 18 18 19 19 19 18 18 18 18 18 18 18 19 19 18 18
18 18 18 18 17 17 17 17 17 17 17 17 18 18 18 18 18 18 18 18 18 18 18 18 18 18 18 18 18 18 19 19 18 18 18 18 18 18 18 18 18 18 18
18 18 17 17 17 17 17 17 17 17 17 17 17 17 18 18 18 18 18 18 18 18 18 18 18 18 18 18 18 18 18 19 18 18 18 18 18 18 18 18 18 18 18
18 17 17 17 17 17 17 16 16 16 17 17 17 17 17 17 17 17 17 18 17 18 18 18 18 18 18 18 18 18 18 18 18 18 18 18 18 18 18 18 18 18 18
17 17 17 16 16 16 16 16 16 16 16 16 16 16 16 17 17 17 17 17 17 17 17 17 18 18 18 18 18 18 18 18 18 18 18 18 18 18 18 18 18 18 18
17 17 16 16 15 15 15 15 15 15 16 16 16 16 16 16 16 16 17 17 17 17 17 17 17 17 18 18 18 18 18 18 18 18 18 18 18 18 18 18 18 18 18
17 17 16 15 15 15 15 15 15 15 15 15 15 15 15 16 16 16 16 16 17 17 17 17 17 17 18 18 18 18 18 18 18 19 18 18 18 18 18 18 18 18 18
17 16 16 15 15 14 14 14 14 14 15 15 15 15 15 15 15 15 15 16 16 16 17 17 17 17 17 17 18 18 18 18 18 19 18 18 18 18 18 18 18 18 18
16 16 16 15 14 14 14 14 14 14 14 14 14 14 15 15 15 15 15 15 16 16 16 16 17 17 17 17 17 18 18 18 18 19 18 18 18 18 18 18 18 18 18
16 16 15 15 14 14 14 14 14 14 14 14 14 14 14 14 14 14 15 15 15 15 16 16 16 16 17 17 17 17 18 18 18 18 18 18 18 18 18 18 18 18 18
16 16 15 15 14 14 14 13 13 13 13 13 13 14 14 14 14 14 14 14 15 15 15 15 16 16 16 16 17 17 17 18 18 18 18 19 18 18 18 18 18 18 18
16 16 15 15 14 14 13 13 13 13 13 13 13 13 13 13 13 14 14 14 14 15 15 15 15 16 16 16 16 16 17 17 17 18 18 19 19 18 18 18 18 18 18
16 16 15 15 14 13 13 13 13 13 13 13 13 13 13 13 13 13 13 14 14 14 14 15 15 15 16 16 16 16 16 17 17 18 18 18 19 19 18 18 18 18 18
16 15 15 14 14 13 13 13 13 13 13 13 13 13 13 13 13 13 13 13 14 14 14 14 15 15 15 16 16 16 16 17 17 18 18 18 18 18 19 18 18 18 18
16 15 15 14 14 13 13 12 12 12 12 12 12 12 12 13 13 13 13 13 13 13 14 14 14 14 15 15 15 16 16 16 17 17 17 18 18 18 18 18 18 18 18
16 15 14 14 13 13 12 12 12 12 12 12 12 12 12 12 12 12 13 13 13 13 13 14 14 14 14 15 15 15 15 16 16 16 17 17 18 18 18 18 18 18 18
16 15 14 14 13 13 13 13 13 13 12 12 12 12 12 12 12 12 12 12 13 13 13 13 14 14 14 14 15 15 15 15 16 16 16 17 17 18 18 18 18 18 18
Wind_Speed
9 14 12 10 8 7 6 5 5 4 4 4 3 3 3 2 2 2 3 3 4 4 5 5 5 5 6 7 7 6 6 6 6 5 6 6 7 7 7 7 7 10 10
11 15 12 10 7 6 5 4 3 3 2 2 1 1 1 1 0 1 1 2 2 3 3 4 4 4 5 5 5 5 5 5 3 2 2 4 6 7 7 9 11 9 9
11 14 12 9 7 5 4 3 2 1 0 1 1 1 2 2 2 2 2 2 2 2 2 2 3 3 3 3 4 4 4 4 4 4 4 2 7 7 7 8 8 8 8
11 12 12 10 8 5 4 2 1 1 1 2 2 3 3 4 4 3 3 3 3 2 2 2 2 2 2 2 3 3 4 5 6 7 4 4 7 8 6 7 7 7 7
12 14 13 11 9 7 5 3 2 2 2 3 4 4 5 5 5 5 5 5 4 4 3 3 2 2 2 2 2 3 3 5 8 9 3 8 10 8 6 6 6 6 6
11 13 12 11 9 7 5 4 3 2 2 3 4 5 6 6 7 7 7 6 6 6 5 4 3 3 3 3 3 3 4 6 9 8 1 9 10 7 6 5 5 5 5
9 11 10 9 8 7 6 5 3 2 2 3 4 5 6 7 7 8 8 8 8 7 6 5 4 4 4 4 4 4 5 7 10 8 0 10 10 7 5 5 5 5 4
7 7 7 7 7 6 5 4 3 2 2 2 3 4 5 6 7 8 9 9 9 9 7 7 6 6 6 5 5 5 6 8 8 7 2 11 10 7 5 5 4 4 4
5 4 4 4 4 4 4 2 2 1 2 2 2 3 4 6 7 8 10 10 10 9 9 8 7 7 7 7 7 7 7 8 10 9 1 10 11 8 6 5 4 4 3
4 3 2 2 2 1 1 2 1 2 3 4 4 5 5 6 8 9 10 10 10 9 9 9 9 9 9 9 9 8 8 8 11 10 2 10 12 8 6 5 4 4 4
5 4 3 2 2 1 3 2 3 4 5 6 6 7 7 7 8 8 10 10 9 9 9 9 10 10 10 11 12 12 10 10 12 8 5 12 12 9 6 5 5 4 4
5 5 4 3 3 2 3 2 3 3 4 6 6 5 5 5 6 7 7 9 9 9 10 10 11 11 11 11 13 14 10 13 12 7 9 15 13 10 7 6 5 5 5
6 7 7 7 6 5 2 3 2 3 5 6 6 5 5 4 5 6 4 6 8 8 8 8 8 8 9 10 8 11 13 13 9 6 11 15 13 11 9 7 6 6 6
6 6 6 7 6 6 6 4 4 3 2 3 5 6 4 2 3 3 3 4 5 5 5 5 4 6 8 11 9 9 11 8 6 7 12 16 14 12 10 9 8 7 7
6 5 6 7 7 6 5 3 4 2 2 4 4 5 5 3 3 3 2 3 4 5 4 3 3 4 5 7 8 7 5 6 7 9 11 16 15 13 12 11 9 9 8
7 6 6 7 6 6 6 6 5 4 5 5 3 5 5 3 3 3 4 4 4 5 5 4 5 6 5 5 8 6 4 4 5 8 13 15 16 15 14 13 12 11 10
6 6 6 6 7 7 7 7 6 6 6 4 4 7 7 5 3 3 4 4 4 6 6 5 6 5 6 6 7 6 4 4 4 5 11 13 14 15 16 15 14 12 12
6 6 5 7 7 6 5 5 4 5 5 4 6 7 8 8 6 3 3 3 4 5 4 5 5 6 6 5 5 5 5 5 5 5 6 11 13 14 16 17 16 14 13
5 5 5 5 5 6 6 5 4 5 4 4 5 5 8 9 10 5 3 3 3 3 4 5 5 5 5 6 6 6 5 5 5 6 5 7 11 15 15 18 19 17 16
3 5 5 5 5 6 5 5 5 5 5 4 4 4 7 7 8 6 5 4 3 3 3 4 5 5 5 5 6 6 5 5 5 5 5 4 6 12 16 17 16 16 17
4 5 5 5 5 5 4 4 5 5 5 4 3 5 7 7 7 5 5 5 4 3 4 5 4 5 4 4 3 4 4 5 6 6 5 4 4 5 11 16 16 15 15
4 5 5 6 5 5 3 4 4 5 4 3 3 3 6 6 6 6 6 5 4 4 5 5 4 3 3 4 4 3 3 4 5 7 6 6 5 4 5 11 15 16 16
4 5 6 6 6 6 6 4 5 5 4 4 5 4 4 5 5 4 5 6 5 4 4 5 5 5 4 4 5 4 3 5 3 4 7 7 6 5 5 5 8 13 18
5 5 6 6 6 6 6 5 6 5 4 5 4 4 5 5 4 4 4 5 5 4 5 5 5 4 4 4 4 5 4 2 2 2 3 5 6 6 6 5 6 8 14
4 4 3 4 4 4 5 5 4 4 4 4 5 5 5 5 4 4 4 4 5 4 4 4 5 5 4 5 4 3 4 4 4 3 3 3 4 5 6 6 5 4 8
2 2 1 1 2 2 4 5 4 4 5 6 6 5 5 4 4 5 5 5 5 4 5 5 5 5 5 5 5 4 4 3 4 4 4 3 4 4 5 5 5 5 6
Wind_Direction
109 117 123 120 114 108 101 98 97 100 101 105 109 113 114 106 79 51 43 39 37 35 32 32 35 38 40 41 42 43 48 52 55 63 76 82 81 71 56 45 59 80 78
109 117 121 118 113 108 102 93 94 94 101 113 124 136 150 154 113 24 6 8 19 21 21 19 23 29 33 32 33 34 35 35 26 31 90 106 97 82 64 55 67 79 78
98 118 119 112 108 102 97 88 78 62 47 241 223 228 240 246 255 266 291 306 326 343 356 0 4 10 16 17 21 19 15 1 333 314 283 186 120 92 77 69 74 79 78
84 95 103 100 91 81 72 59 27 346 312 286 264 253 256 260 263 267 273 281 288 296 309 322 331 340 344 351 357 357 350 332 313 307 299 137 115 97 86 79 79 81 80
80 84 89 89 85 78 69 55 28 352 322 300 284 272 268 269 269 268 269 270 273 277 278 283 293 304 306 310 321 326 322 314 308 303 329 101 102 104 92 85 80 80 85
78 84 82 80 79 75 68 58 40 4 317 299 288 280 274 272 272 269 268 266 266 268 268 266 274 278 282 284 289 293 298 302 303 297 358 107 108 105 97 90 90 85 88
71 80 84 83 81 75 67 57 43 7 334 300 286 284 282 280 278 274 268 265 264 262 260 260 258 261 267 271 276 279 282 294 285 286 198 108 111 110 102 96 95 91 91
68 74 90 99 98 93 84 71 53 13 338 305 283 275 273 277 281 277 270 265 263 261 258 257 253 256 260 262 264 267 273 285 293 297 161 121 123 117 112 106 104 99 98
74 74 80 92 103 118 116 95 61 358 308 287 272 266 264 264 267 270 266 262 261 258 256 254 251 252 255 255 253 256 264 275 290 289 237 133 131 126 120 114 109 102 101
75 64 66 55 50 66 144 163 212 276 277 262 249 243 250 256 257 258 256 253 253 254 255 254 252 250 251 251 248 247 252 266 266 271 181 138 136 134 132 126 121 115 108
51 37 29 23 11 307 281 247 226 248 256 258 250 238 239 247 248 245 244 247 245 245 249 255 253 249 249 248 241 237 238 243 248 242 153 143 141 142 144 141 137 131 121
31 23 14 356 331 320 317 310 251 258 249 252 255 239 226 245 254 257 252 242 239 241 244 247 251 250 246 246 235 226 230 234 245 220 163 153 149 152 158 158 153 145 136
27 15 359 0 347 343 333 322 303 264 247 248 254 254 243 248 258 262 253 239 232 234 237 240 240 243 241 243 238 211 223 231 220 197 161 158 158 161 168 170 167 159 153
37 9 2 1 347 349 347 344 296 263 242 244 236 240 235 222 236 241 233 236 223 215 221 230 228 246 256 256 246 226 224 219 201 161 165 163 162 168 174 178 176 172 168
30 7 20 2 356 347 338 317 317 314 308 299 284 266 245 221 241 250 243 234 230 216 208 213 228 240 258 273 272 258 241 218 198 169 163 167 168 174 180 183 182 179 178
17 5 31 3 358 346 344 336 325 325 315 301 300 294 284 254 229 235 243 237 230 224 216 211 224 235 242 263 270 271 281 256 216 168 163 173 175 179 185 188 186 184 183
7 7 22 357 9 0 352 340 327 321 325 332 332 320 312 299 277 260 247 239 233 227 220 214 218 230 237 247 260 268 271 268 254 200 172 174 179 185 188 190 189 188 188
4 2 23 9 359 352 350 330 324 329 340 340 337 336 333 326 312 294 274 258 240 228 215 216 216 222 230 234 248 254 262 270 258 247 193 179 178 186 193 194 191 190 190
358 359 30 20 350 354 351 335 333 338 340 334 342 353 346 342 334 322 297 280 269 242 227 232 219 214 225 227 233 240 242 252 258 252 227 203 189 180 185 194 193 191 191
7 9 29 13 6 6 8 348 345 345 340 338 348 352 350 337 330 329 310 296 285 266 249 241 238 224 220 220 230 238 233 242 252 253 247 226 206 187 181 182 187 192 193
30 20 11 15 15 19 15 343 342 338 330 332 344 356 349 338 335 320 311 315 310 282 263 251 241 235 228 213 214 240 252 244 245 246 249 241 222 198 177 174 180 184 191
38 22 4 22 18 19 6 344 331 330 321 330 339 346 349 340 337 332 329 314 305 299 285 266 248 235 240 207 196 190 230 245 242 235 236 237 229 204 188 183 185 181 182
49 31 10 22 19 19 0 359 344 332 331 351 348 344 336 328 330 330 324 319 308 302 289 279 259 236 238 232 206 192 192 215 226 237 231 233 229 217 206 193 199 190 182
49 40 18 19 16 16 2 5 345 338 344 337 335 329 335 332 336 324 318 318 310 301 293 287 275 250 228 240 235 229 235 227 190 228 249 233 228 224 218 217 213 200 188
50 45 20 16 16 13 345 328 317 342 334 325 326 332 338 328 327 335 333 320 313 305 302 298 299 279 243 229 229 224 235 244 234 213 236 243 238 231 219 218 223 219 201
77 64 11 10 5 345 320 316 325 340 331 325 332 338 332 322 330 351 343 333 317 317 310 299 287 279 264 247 236 224 214 212 213 211 222 228 233 243 232 223 217 215 211
Height
1533 1533 1534 1535 1537 1538 1539 1541 1542 1543 1544 1545 1546 1547 1547 1547 1548 1548 1548 1548 1549 1549 1549 1549 1548 1548 1548 1548 1548 1548 1548 1548 1548 1548 1548 1548 1548 1548 1548 1548 1548 1548 1548
1534 1534 1535 1536 1537 1539 1540 1541 1543 1544 1545 1545 1546 1547 1547 1548 1548 1549 1549 1549 1549 1549 1549 1549 1549 1549 1549 1549 1549 1549 1549 1549 1549 1549 1549 1549 1549 1549 1549 1549 1549 1549 1549
1534 1534 1535 1536 1537 1539 1540 1541 1542 1543 1544 1545 1546 1547 1547 1548 1548 1549 1549 1549 1549 1549 1549 1549 1549 1549 1549 1549 1550 1550 1550 1550 1550 1550 1550 1550 1550 1550 1550 1549 1550 1550 1550
1535 1535 1536 1537 1537 1538 1539 1541 1542 1543 1544 1544 1545 1546 1547 1547 1548 1548 1548 1548 1549 1549 1549 1549 1549 1549 1549 1550 1550 1550 1550 1551 1551 1551 1551 1551 1551 1551 1550 1550 1550 1550 1551
1535 1536 1536 1537 1538 1538 1539 1540 1541 1542 1542 1543 1544 1545 1545 1546 1547 1547 1547 1548 1548 1548 1548 1548 1549 1549 1549 1549 1550 1550 1550 1551 1551 1552 1552 1551 1551 1551 1551 1551 1551 1551 1551
1536 1536 1537 1537 1537 1538 1538 1539 1540 1540 1541 1542 1542 1543 1544 1544 1545 1546 1546 1546 1547 1547 1547 1548 1548 1548 1548 1549 1549 1550 1550 1551 1551 1551 1552 1552 1551 1551 1551 1551 1551 1551 1552
1536 1536 1536 1537 1537 1537 1537 1538 1538 1539 1539 1540 1540 1541 1542 1542 1543 1544 1544 1545 1545 1546 1546 1546 1547 1547 1548 1548 1548 1549 1550 1551 1551 1552 1552 1552 1551 1551 1551 1551 1551 1552 1552
1537 1537 1536 1536 1536 1536 1536 1536 1536 1537 1537 1537 1538 1539 1539 1540 1541 1542 1542 1543 1543 1544 1544 1545 1545 1546 1546 1547 1547 1548 1549 1550 1550 1551 1552 1551 1551 1551 1551 1551 1552 1552 1552
1537 1537 1537 1536 1535 1534 1534 1534 1534 1534 1535 1535 1535 1536 1537 1537 1538 1539 1540 1541 1541 1542 1542 1543 1544 1544 1545 1545 1546 1546 1547 1548 1549 1550 1551 1551 1551 1551 1551 1551 1552 1552 1552
1538 1537 1536 1535 1534 1533 1532 1532 1532 1532 1532 1532 1532 1533 1534 1534 1535 1536 1537 1538 1539 1539 1540 1541 1542 1543 1543 1544 1544 1545 1546 1547 1548 1549 1550 1550 1550 1550 1551 1551 1551 1552 1553
1538 1537 1536 1535 1534 1532 1531 1530 1529 1529 1529 1529 1529 1529 1530 1531 1532 1533 1533 1534 1535 1537 1538 1539 1540 1540 1541 1542 1543 1543 1544 1545 1546 1547 1548 1549 1550 1550 1550 1551 1551 1552 1553
1538 1537 1536 1534 1533 1532 1530 1529 1528 1527 1526 1526 1526 1526 1526 1527 1528 1529 1530 1531 1532 1533 1535 1536 1537 1538 1539 1540 1540 1542 1542 1543 1544 1546 1547 1548 1549 1549 1550 1550 1551 1552 1553
1537 1536 1535 1533 1532 1531 1529 1527 1526 1525 1525 1524 1524 1523 1524 1524 1525 1526 1526 1527 1529 1530 1531 1533 1534 1535 1536 1537 1538 1540 1540 1541 1543 1544 1545 1546 1547 1548 1549 1549 1550 1551 1552
1536 1535 1534 1532 1531 1529 1527 1526 1524 1524 1523 1523 1522 1521 1521 1521 1522 1522 1523 1524 1525 1526 1527 1529 1531 1532 1533 1535 1536 1537 1538 1540 1542 1542 1543 1544 1546 1547 1548 1548 1549 1550 1552
1535 1534 1532 1531 1529 1527 1526 1524 1523 1522 1521 1521 1520 1520 1519 1519 1519 1519 1520 1520 1521 1522 1524 1526 1528 1529 1530 1531 1532 1534 1536 1538 1539 1540 1541 1543 1544 1545 1546 1547 1548 1549 1551
1534 1533 1531 1529 1528 1526 1524 1522 1521 1520 1520 1519 1519 1518 1517 1517 1516 1516 1516 1517 1517 1518 1520 1522 1524 1526 1527 1528 1529 1531 1533 1535 1537 1538 1539 1541 1542 1543 1544 1546 1547 1548 1549
1534 1532 1530 1529 1527 1525 1522 1521 1519 1519 1518 1517 1516 1516 1515 1515 1514 1514 1514 1514 1514 1515 1517 1518 1520 1522 1523 1524 1526 1528 1530 1532 1534 1536 1537 1538 1539 1541 1542 1544 1545 1546 1548
1533 1531 1529 1528 1526 1524 1521 1519 1518 1517 1516 1515 1514 1513 1513 1512 1512 1511 1511 1511 1511 1512 1513 1515 1516 1518 1519 1521 1522 1524 1526 1528 1530 1533 1534 1535 1536 1538 1540 1542 1543 1545 1546
1532 1530 1528 1527 1525 1523 1521 1519 1517 1516 1514 1513 1512 1511 1510 1509 1509 1508 1508 1508 1509 1509 1510 1511 1513 1514 1516 1517 1519 1521 1522 1524 1527 1529 1531 1532 1534 1535 1537 1539 1541 1542 1544
1531 1529 1528 1526 1524 1522 1520 1517 1516 1514 1513 1512 1510 1509 1508 1507 1506 1506 1505 1505 1506 1506 1507 1508 1509 1511 1512 1514 1516 1517 1519 1520 1522 1525 1527 1529 1531 1532 1533 1536 1538 1540 1542
1530 1528 1527 1525 1523 1521 1518 1516 1515 1513 1512 1511 1509 1508 1506 1505 1504 1503 1503 1502 1503 1503 1504 1505 1506 1507 1508 1510 1512 1513 1515 1517 1518 1520 1523 1525 1527 1529 1531 1532 1534 1537 1539
1528 1527 1526 1524 1522 1520 1518 1516 1514 1513 1511 1510 1508 1506 1505 1503 1502 1501 1500 1500 1500 1500 1501 1502 1502 1503 1505 1507 1508 1510 1512 1514 1514 1516 1518 1521 1523 1525 1527 1529 1531 1533 1535
1527 1526 1525 1523 1522 1520 1517 1516 1513 1512 1511 1509 1507 1505 1504 1502 1500 1499 1498 1497 1497 1497 1498 1498 1499 1500 1501 1503 1505 1507 1508 1508 1510 1512 1513 1516 1518 1521 1523 1526 1528 1530 1531
1526 1525 1524 1523 1521 1519 1517 1515 1513 1511 1510 1508 1507 1505 1503 1501 1499 1498 1496 1495 1495 1495 1495 1495 1496 1497 1498 1499 1501 1503 1505 1506 1508 1508 1509 1511 1514 1516 1519 1521 1524 1527 1529
1525 1524 1523 1522 1520 1518 1516 1515 1513 1511 1509 1508 1506 1504 1502 1500 1498 1497 1495 1494 1493 1493 1492 1492 1493 1494 1495 1496 1497 1498 1500 1502 1504 1505 1505 1507 1509 1511 1514 1516 1519 1522 1525
1524 1523 1522 1521 1519 1517 1516 1514 1513 1511 1509 1507 1505 1503 1501 1499 1498 1496 1494 1492 1491 1490 1490 1489 1489 1490 1491 1492 1493 1494 1496 1497 1499 1501 1501 1502 1504 1506 1509 1511 1514 1517 1520